Location: Unspecified
(0.0000°N, 0.0000°E)
Time: 23:07:18
(UTC+00:00)

UNISAT 6 - Visible Passes

Search period start: 24 June 2024 00:00
Search period end: 04 July 2024 00:00
Orbit: 593 x 665 km, 97.7° (Epoch: 24 June)

Date Brightness Start Highest point End Pass type
(mag) Time Alt. Az. Time Alt. Az. Time Alt. Az.
24 Jun ? 04:06:14 35° SE 04:07:44 55° ENE 04:12:00 10° N visible
25 Jun ? 04:26:41 47° S 04:27:51 74° WSW 04:32:13 10° NNW visible
26 Jun ? 04:47:05 33° SW 04:47:59 36° W 04:52:00 10° NW visible
27 Jun ? 03:30:10 14° ESE 03:32:03 17° ENE 03:34:58 10° NE visible
27 Jun ? 05:07:31 19° WSW 05:08:06 19° WSW 05:11:14 10° NW visible
28 Jun ? 03:50:35 25° ESE 03:52:09 33° ENE 03:56:06 10° NNE visible
29 Jun ? 04:11:00 44° SE 04:12:14 66° ENE 04:16:37 10° N visible
30 Jun ? 04:31:24 49° SSW 04:32:20 62° WSW 04:36:43 10° NNW visible
01 Jul ? 03:15:28 10° E 03:16:26 11° ENE 03:17:23 10° ENE visible
01 Jul ? 04:51:49 30° WSW 04:52:26 31° WSW 04:56:21 10° NW visible
02 Jul ? 03:34:51 17° ESE 03:36:29 21° ENE 03:39:48 10° NNE visible
02 Jul ? 05:12:13 17° WSW 05:12:32 17° WSW 05:15:22 10° WNW visible
03 Jul ? 03:55:15 31° ESE 03:56:33 39° ENE 04:00:43 10° N visible
